7 * 24
多渠道服务支持
GEESAT 2-04是中国于2024年2月2日发射的一颗商业卫星,属于GEESAT 2系列卫星。作为中国制造的对地观测卫星,它具备先进的遥感探测能力,可为国土测绘、城市规划、环境监测、农业估产、灾害预警等领域提供高分辨率遥感数据支持。入轨后稳定运行至今已两年有余,卫星状态良好,正在持续为国民经济建设和商业航天应用贡献空间数据能力,推动中国商业遥感卫星星座的组网建设与应用拓展。
中国
(CN)
| 数据来源 | 国际轨道数据 |
| 星历时间: | 2026-03-13T21:30:31+0800 10小时前 查看轨道信息 |
| 半长轴: | 6955.223km |
| 偏心率: | 0.0006417 |
| 轨道倾角: | 49.992° |
| 近地点辐角 | 21.157° |
| 升交点赤经 | 55.784° |
| 平近点角 | 338.964° |
| 近地点: | 572.622km |
| 远地点: | 581.55km |
| 周期: | 96.211分钟 |
| 每日圈数: | 14.96705 |